{"data":{"norad_id":65741,"intl_designator":"2025-216H","name":"STARLINK-35284","alt_names":[],"object_type":"PAYLOAD","status":"ACTIVE","operator":null,"country":"US","launch_date":"2025-09-25","launch_site_code":"AFETR","launch_vehicle":null,"mission":null,"orbit_class":"UNKNOWN","rcs_meters":null,"size_class":null,"mass_kg":null,"dimensions":null,"purposes":["comms"],"wikipedia_slug":null,"has_3d_model":false,"image_url":null,"decayed_at":null,"tle_current":{"epoch":"2026-05-24T12:51:21.311712Z","epoch_age_seconds":125320,"freshness":"FRESH","line1":"1 65741U 25216H   26144.53566333  .00018439  00000+0  63286-3 0  9992","line2":"2 65741  53.1616 340.7656 0001464  83.5175 276.5993 15.30213739 38154","mean_motion":15.30213739,"eccentricity":0.0001464,"inclination_deg":53.1616,"raan_deg":340.7656,"arg_perigee_deg":83.5175,"mean_anomaly_deg":276.5993,"bstar":0.00063286,"rev_number":3815,"period_min":94.104500783077,"perigee_km":474.17072281136,"apogee_km":476.17737228609,"semimajor_km":6853.3110475487,"source":"CELESTRAK","updated_at":"2026-05-25T13:38:20.930281Z"}}}